Weather History for Milton, FL

Change the Weather History Date:

Wednesday, August 28, 2013

  Actual Average (KNSE) Record (KNSE)
Temperature  
Mean Temperature 80 °F -  
Max Temperature 90 °F 86 °F 99 °F (2011)
Min Temperature 69 °F 70 °F 68 °F (2002)
Cooling Degree Days 14    
Growing Degree Days 30 (Base 50)    
Moisture  
Dew Point 67 °F    
Average Humidity 66    
Maximum Humidity 90    
Minimum Humidity 46    
Precipitation  
Precipitation 0.00 in - - ()
Sea Level Pressure  
Sea Level Pressure 30.00 in    
Wind  
Wind Speed 4 mph (North)    
Max Wind Speed 7 mph    
Max Gust Speed -    
Visibility 10 miles    
Events      
Averages and records for this station are not official NWS values.
T = Trace of Precipitation, MM = Missing Value Source: NWS Daily Summary

Daily Weather History Graph

Daily Weather History Graph

Search for Another Location

Airport:

Trip Planner

Search our weather history database for the weather conditions in past years. The results will help you decide how hot, cold, wet, or windy it might be!

Date:

Astronomy

Aug. 28, 2013 Rise Set
Actual Time 6:22 AM CDT 7:15 PM CDT
Civil Twilight 5:57 AM CDT 7:40 PM CDT
Nautical Twilight 5:28 AM CDT 8:09 PM CDT
Astronomical Twilight 4:58 AM CDT 8:39 PM CDT
Moon No Moon Rise 1:41 PM CDT
Length of Visible Light 13h 42m
Length of Day
12h 53m
Waning Gibbous, 47% of the Moon is Illuminated
Aug 28
Waning Gibbous
Sep 5
New
Sep 12
First Quarter
Sep 19
Full
Sep 26
Last Quarter

Hourly Weather History & Observations

Time (CDT) Temp. Heat Index Dew Point Humidity Pressure Visibility Wind Dir Wind Speed Gust Speed Precip Events Conditions
12:56 AM 69.1 °F - 66.0 °F 90% 30.01 in 10.0 mi NNW 3.5 mph - N/A   Scattered Clouds
1:56 AM 69.1 °F - 64.9 °F 87% 29.99 in 10.0 mi North 3.5 mph - N/A   Clear
2:56 AM 71.1 °F - 66.0 °F 84% 29.98 in 10.0 mi North 5.8 mph - N/A   Clear
3:56 AM 72.0 °F - 64.9 °F 78% 29.97 in 10.0 mi NNE 5.8 mph - N/A   Clear
4:56 AM 71.1 °F - 64.9 °F 81% 29.98 in 10.0 mi NNE 5.8 mph - N/A   Clear
5:56 AM 70.0 °F - 64.9 °F 84% 29.99 in 10.0 mi NNE 4.6 mph - N/A   Partly Cloudy
6:56 AM 71.1 °F - 64.9 °F 81% 30.01 in 10.0 mi North 4.6 mph - N/A   Partly Cloudy
7:56 AM 75.0 °F - 66.0 °F 73% 30.02 in 10.0 mi North 4.6 mph - N/A   Partly Cloudy
9:56 AM 82.9 °F 85.8 °F 68.0 °F 60% 30.05 in 10.0 mi Variable 3.5 mph - N/A   Scattered Clouds
10:56 AM 86.0 °F 88.8 °F 66.9 °F 53% 30.04 in 10.0 mi ENE 6.9 mph - N/A   Scattered Clouds
11:56 AM 87.1 °F 89.9 °F 66.9 °F 51% 30.03 in 10.0 mi Variable 3.5 mph - N/A   Scattered Clouds
12:56 PM 88.0 °F 90.3 °F 66.0 °F 48% 30.02 in 10.0 mi Calm Calm - N/A   Scattered Clouds
1:56 PM 88.0 °F 90.3 °F 66.0 °F 48% 30.01 in 10.0 mi WSW 3.5 mph - N/A   Mostly Cloudy
2:56 PM 87.1 °F 91.3 °F 69.1 °F 55% 29.99 in 10.0 mi Calm Calm - N/A   Mostly Cloudy
3:56 PM 90.0 °F 92.8 °F 66.9 °F 46% 29.96 in 10.0 mi West 3.5 mph - N/A   Mostly Cloudy
4:56 PM 90.0 °F 92.8 °F 66.9 °F 46% 29.96 in 10.0 mi Variable 3.5 mph - N/A   Mostly Cloudy
5:56 PM 87.1 °F 89.9 °F 66.9 °F 51% 29.97 in 10.0 mi NW 4.6 mph - N/A   Mostly Cloudy
6:56 PM 84.9 °F 89.4 °F 70.0 °F 61% 29.97 in 10.0 mi Variable 3.5 mph - N/A   Mostly Cloudy
7:56 PM 82.0 °F 85.9 °F 70.0 °F 67% 29.97 in 10.0 mi Calm Calm - N/A   Mostly Cloudy
8:56 PM 81.0 °F 84.4 °F 70.0 °F 69% 29.98 in 10.0 mi Calm Calm - N/A   Scattered Clouds